Location: Heisler
(52.6701°N, 112.2239°W)
Time: 13:45:27
(UTC+00:00)

Envisat - Pass Details

Date: 03 December 2021
Orbit: 764 x 766 km, 98.2° (Epoch: 26 January)

Event Time Altitude Azimuth Distance (km) Brightness Sun altitude
Rises 11:08:45 0° 27° (NNE) 3,247 6.7 -37.0°
Reaches altitude 10° 11:12:00 10° 48° (NE) 2,315 6.1 -36.5°
Maximum altitude 11:15:06 16° 86° (E) 1,918 5.7 -36.1°
Drops below altitude 10° 11:18:12 10° 124° (SE) 2,303 5.9 -35.6°
Sets 11:21:24 0° 146° (SE) 3,223 6.5 -35.1°
